シューメーカー-レヴィ第6彗星

181P/Shoemaker-Levy 6 (2006)

English version
Home page
Total 6,336 html files since Dec. 4, 1995
Updated on February 12, 2007

---------------------------------------------------------------------

・ プロフィール

符号 181P/2006 U4
検出日 2006年10月26日
検出光度 18.2等
検出者 R. H. McNaught and D. M. Burton (Siding Spring)

・ 写真集

・ 軌道要素

                    Epoch = 2006 Dec. 11.0 TT
     T = 2006 Nov. 25.0013 TT         Peri. = 333.5580
     e = 0.706643                     Node  =  37.8728  2000.0
     q = 1.127551 AU                  Incl. =  16.9267
       a =  3.843617 AU    n = 0.1307959    P =   7.535 years

・ 星図

・ 光度変化

        m1 = 13 + 5 logΔ + 40 log r

---------------------------------------------------------------------

軌道要素は Dr. Brian G. Marsden の計算によるもので、 IAUC 8767 に掲載されたものです。
星図は StellaNavigator Ver.2.0 for Windows (アストロアーツ 編著 / アスキー出版局刊) で作成したものです。
光度グラフはComet for Windowsで作成したものです。

---------------------------------------------------------------------

Copyright(C) 1995-2008 Seiichi Yoshida (comet@aerith.net). All rights reserved.